Time,TemperatureF,DewpointF,PressureIn,WindDirection,WindDirectionDegrees,WindSpeedMPH,WindSpeedGustMPH,Humidity,HourlyPrecipIn,Conditions,Clouds,dailyrainin,SoftwareType,DateUTC
2013-03-01 00:00:00,32.5,31.5,29.75,East,95,0.0,0.0,96,0.00,,,0.49,Wunderground v.1.15,2013-03-01 05:00:00,
2013-03-01 00:05:00,32.6,31.6,29.75,East,99,0.0,0.0,96,0.00,,,0.49,Wunderground v.1.15,2013-03-01 05:05:00,
2013-03-01 00:10:00,32.6,31.6,29.75,East,86,0.0,0.0,96,0.00,,,0.00,Wunderground v.1.15,2013-03-01 05:10:00,
2013-03-01 00:15:00,32.6,31.6,29.76,East,98,0.0,0.0,96,0.00,,,0.00,Wunderground v.1.15,2013-03-01 05:15:00,
2013-03-01 00:20:00,32.6,31.6,29.76,ESE,119,0.0,0.0,96,0.00,,,0.00,Wunderground v.1.15,2013-03-01 05:20:00,
2013-03-01 00:25:00,32.6,31.6,29.76,ESE,107,0.0,0.0,96,0.00,,,0.00,Wunderground v.1.15,2013-03-01 05:25:00,
2013-03-01 00:35:00,32.6,31.6,29.76,SE,138,0.0,0.0,96,0.00,,,0.00,Wunderground v.1.15,2013-03-01 05:35:00,
2013-03-01 00:40:00,32.7,31.7,29.76,ESE,117,0.0,0.0,96,0.00,,,0.00,Wunderground v.1.15,2013-03-01 05:40:00,
2013-03-01 00:50:00,32.9,32.1,29.76,ESE,103,0.0,0.0,97,0.00,,,0.00,Wunderground v.1.15,2013-03-01 05:50:00,
2013-03-01 01:00:00,33.4,32.6,29.76,SSE,147,0.0,0.0,97,0.00,,,0.00,Wunderground v.1.15,2013-03-01 06:00:00,
2013-03-01 01:05:00,33.4,32.6,29.76,SE,130,0.0,0.0,97,0.00,,,0.00,Wunderground v.1.15,2013-03-01 06:05:00,
2013-03-01 01:15:00,33.6,32.8,29.76,SSE,159,0.0,0.0,97,0.00,,,0.00,Wunderground v.1.15,2013-03-01 06:15:00,
2013-03-01 01:20:00,33.6,32.6,29.75,SSE,166,0.0,0.0,96,0.00,,,0.00,Wunderground v.1.15,2013-03-01 06:20:00,
2013-03-01 01:30:00,33.6,32.8,29.76,SE,128,0.0,0.0,97,0.00,,,0.00,Wunderground v.1.15,2013-03-01 06:30:00,
2013-03-01 01:35:00,33.6,32.8,29.75,South,175,0.0,0.0,97,0.00,,,0.00,Wunderground v.1.15,2013-03-01 06:35:00,
2013-03-01 01:45:00,33.6,32.8,29.76,South,184,0.0,0.0,97,0.00,,,0.00,Wunderground v.1.15,2013-03-01 06:45:00,
2013-03-01 01:50:00,33.6,32.8,29.75,NNW,339,0.0,0.0,97,0.00,,,0.00,Wunderground v.1.15,2013-03-01 06:50:00,
2013-03-01 02:00:00,33.6,32.6,29.75,East,86,0.0,0.0,96,0.00,,,0.00,Wunderground v.1.15,2013-03-01 07:00:00,
2013-03-01 02:05:00,33.6,32.6,29.76,ESE,105,0.0,0.0,96,0.00,,,0.00,Wunderground v.1.15,2013-03-01 07:05:00,
2013-03-01 02:15:00,33.6,32.8,29.76,SE,128,0.0,0.0,97,0.00,,,0.00,Wunderground v.1.15,2013-03-01 07:15:00,
2013-03-01 02:20:00,33.6,32.8,29.75,SSW,201,0.0,0.0,97,0.00,,,0.00,Wunderground v.1.15,2013-03-01 07:20:00,
2013-03-01 02:30:00,33.5,32.5,29.76,East,99,0.0,0.0,96,0.00,,,0.00,Wunderground v.1.15,2013-03-01 07:30:00,
2013-03-01 02:35:00,33.5,32.5,29.76,ESE,122,0.0,0.0,96,0.00,,,0.00,Wunderground v.1.15,2013-03-01 07:35:00,
2013-03-01 02:45:00,33.3,32.3,29.76,ESE,102,0.0,0.0,96,0.00,,,0.00,Wunderground v.1.15,2013-03-01 07:45:00,
2013-03-01 02:55:00,33.3,32.3,29.76,ESE,105,0.0,0.0,96,0.00,,,0.00,Wunderground v.1.15,2013-03-01 07:55:00,
2013-03-01 03:05:00,33.3,32.3,29.76,ESE,107,0.0,0.0,96,0.00,,,0.00,Wunderground v.1.15,2013-03-01 08:05:00,
2013-03-01 03:15:00,33.6,32.6,29.76,NNW,338,0.0,0.0,96,0.00,,,0.00,Wunderground v.1.15,2013-03-01 08:15:00,
2013-03-01 03:20:00,33.7,32.9,29.76,ESE,109,0.0,0.0,97,0.00,,,0.00,Wunderground v.1.15,2013-03-01 08:20:00,
2013-03-01 03:30:00,33.8,33.0,29.76,ESE,119,0.0,0.0,97,0.00,,,0.00,Wunderground v.1.15,2013-03-01 08:30:00,
2013-03-01 03:35:00,33.7,32.9,29.76,SE,145,0.0,0.0,97,0.00,,,0.00,Wunderground v.1.15,2013-03-01 08:35:00,
2013-03-01 03:45:00,33.5,32.5,29.76,SE,124,0.0,0.0,96,0.00,,,0.00,Wunderground v.1.15,2013-03-01 08:45:00,
2013-03-01 03:50:00,33.4,32.4,29.77,NNW,340,0.0,0.0,96,0.00,,,0.00,Wunderground v.1.15,2013-03-01 08:50:00,
2013-03-01 04:00:00,33.2,32.2,29.77,ESE,121,0.0,0.0,96,0.00,,,0.00,Wunderground v.1.15,2013-03-01 09:00:00,
2013-03-01 04:10:00,33.0,32.0,29.77,ESE,103,0.0,0.0,96,0.00,,,0.00,Wunderground v.1.15,2013-03-01 09:10:00,
2013-03-01 04:20:00,32.9,31.9,29.77,ESE,106,0.0,0.0,96,0.00,,,0.00,Wunderground v.1.15,2013-03-01 09:20:00,
2013-03-01 04:25:00,32.7,31.7,29.77,South,175,0.0,0.0,96,0.00,,,0.00,Wunderground v.1.15,2013-03-01 09:25:00,
2013-03-01 04:35:00,32.5,31.5,29.78,South,171,0.0,0.0,96,0.00,,,0.00,Wunderground v.1.15,2013-03-01 09:35:00,
2013-03-01 04:40:00,32.4,31.4,29.78,SSW,204,0.0,0.0,96,0.00,,,0.00,Wunderground v.1.15,2013-03-01 09:40:00,
2013-03-01 04:50:00,32.1,30.8,29.78,WSW,246,0.0,0.0,95,0.00,,,0.00,Wunderground v.1.15,2013-03-01 09:50:00,
2013-03-01 05:00:00,31.9,30.6,29.79,NNE,18,0.0,0.0,95,0.00,,,0.00,Wunderground v.1.15,2013-03-01 10:00:00,
2013-03-01 05:10:00,31.8,30.5,29.79,NNE,18,0.0,0.0,95,0.00,,,0.00,Wunderground v.1.15,2013-03-01 10:10:00,
2013-03-01 05:20:00,31.7,30.2,29.79,NNE,18,0.0,0.0,94,0.00,,,0.00,Wunderground v.1.15,2013-03-01 10:20:00,
2013-03-01 05:30:00,31.4,29.9,29.79,NNE,18,0.0,0.0,94,0.00,,,0.00,Wunderground v.1.15,2013-03-01 10:30:00,
2013-03-01 05:40:00,31.3,29.8,29.80,NNE,18,0.0,0.0,94,0.00,,,0.00,Wunderground v.1.15,2013-03-01 10:40:00,
2013-03-01 05:50:00,31.2,29.7,29.81,NNE,18,0.0,0.0,94,0.00,,,0.00,Wunderground v.1.15,2013-03-01 10:50:00,
2013-03-01 06:00:00,31.0,29.5,29.81,NNE,18,0.0,0.0,94,0.00,,,0.00,Wunderground v.1.15,2013-03-01 11:00:00,
2013-03-01 06:10:00,30.8,29.3,29.81,NNE,18,0.0,0.0,94,0.00,,,0.00,Wunderground v.1.15,2013-03-01 11:10:00,
2013-03-01 06:15:00,30.7,29.2,29.81,NNE,18,0.0,0.0,94,0.00,,,0.00,Wunderground v.1.15,2013-03-01 11:15:00,
2013-03-01 06:25:00,30.6,29.1,29.82,NNE,18,0.0,0.0,94,0.00,,,0.00,Wunderground v.1.15,2013-03-01 11:25:00,
2013-03-01 06:30:00,30.5,29.0,29.82,NNE,18,0.0,0.0,94,0.00,,,0.00,Wunderground v.1.15,2013-03-01 11:30:00,
2013-03-01 06:40:00,30.6,29.1,29.82,NNE,18,0.0,0.0,94,0.00,,,0.00,Wunderground v.1.15,2013-03-01 11:40:00,
2013-03-01 06:50:00,31.5,30.0,29.83,NNE,18,0.0,0.0,94,0.00,,,0.00,Wunderground v.1.15,2013-03-01 11:50:00,
2013-03-01 07:00:00,32.5,29.9,29.84,NNE,18,0.0,0.0,90,0.00,,,0.00,Wunderground v.1.15,2013-03-01 12:00:00,
2013-03-01 07:05:00,33.4,30.2,29.83,NNE,18,0.0,0.0,88,0.00,,,0.00,Wunderground v.1.15,2013-03-01 12:05:00,
2013-03-01 07:15:00,34.5,30.5,29.82,North,360,0.0,0.0,85,0.00,,,0.00,Wunderground v.1.15,2013-03-01 12:15:00,
2013-03-01 07:25:00,35.2,30.6,29.82,North,360,0.0,0.0,83,0.00,,,0.00,Wunderground v.1.15,2013-03-01 12:25:00,
2013-03-01 07:35:00,35.1,29.9,29.83,North,360,0.0,0.0,81,0.00,,,0.00,Wunderground v.1.15,2013-03-01 12:35:00,
2013-03-01 07:40:00,35.2,30.3,29.83,North,360,0.0,0.0,82,0.00,,,0.00,Wunderground v.1.15,2013-03-01 12:40:00,
2013-03-01 07:50:00,35.1,29.9,29.84,North,360,0.0,0.0,81,0.00,,,0.00,Wunderground v.1.15,2013-03-01 12:50:00,
2013-03-01 07:55:00,35.2,30.3,29.84,North,360,0.0,0.0,82,0.00,,,0.00,Wunderground v.1.15,2013-03-01 12:55:00,
2013-03-01 08:05:00,35.4,30.1,29.83,North,360,0.0,0.0,81,0.00,,,0.00,Wunderground v.1.15,2013-03-01 13:05:00,
2013-03-01 08:10:00,35.6,30.0,29.83,North,360,0.0,0.0,80,0.00,,,0.00,Wunderground v.1.15,2013-03-01 13:10:00,
2013-03-01 08:20:00,36.3,30.4,29.82,North,360,0.0,0.0,79,0.00,,,0.00,Wunderground v.1.15,2013-03-01 13:20:00,
2013-03-01 08:25:00,36.7,30.2,29.81,North,360,0.0,0.0,77,0.00,,,0.00,Wunderground v.1.15,2013-03-01 13:25:00,
2013-03-01 08:35:00,37.5,30.6,29.79,North,360,0.0,0.0,76,0.00,,,0.01,Wunderground v.1.15,2013-03-01 13:35:00,
2013-03-01 08:45:00,37.8,30.6,29.79,North,360,0.0,0.0,75,0.00,,,0.01,Wunderground v.1.15,2013-03-01 13:45:00,
2013-03-01 08:55:00,37.9,30.0,29.79,North,360,0.0,0.0,73,0.00,,,0.01,Wunderground v.1.15,2013-03-01 13:55:00,
2013-03-01 09:00:00,37.9,30.4,29.80,North,360,0.0,0.0,74,0.00,,,0.02,Wunderground v.1.15,2013-03-01 14:00:00,
2013-03-01 09:10:00,38.3,30.1,29.80,North,360,0.0,0.0,72,0.04,,,0.03,Wunderground v.1.15,2013-03-01 14:10:00,
2013-03-01 09:20:00,38.6,30.0,29.80,North,360,0.0,0.0,71,0.04,,,0.03,Wunderground v.1.15,2013-03-01 14:20:00,
2013-03-01 09:25:00,38.6,29.7,29.79,North,360,0.0,0.0,70,0.04,,,0.03,Wunderground v.1.15,2013-03-01 14:25:00,
2013-03-01 09:35:00,38.8,29.8,29.79,North,360,0.0,0.0,70,0.04,,,0.04,Wunderground v.1.15,2013-03-01 14:35:00,
2013-03-01 09:45:00,39.5,29.1,29.79,North,360,0.0,0.0,66,0.04,,,0.05,Wunderground v.1.15,2013-03-01 14:45:00,
2013-03-01 09:55:00,40.2,29.4,29.80,North,360,0.0,0.0,65,0.04,,,0.05,Wunderground v.1.15,2013-03-01 14:55:00,
2013-03-01 10:05:00,40.4,28.8,29.80,North,360,0.0,0.0,63,0.04,,,0.06,Wunderground v.1.15,2013-03-01 15:05:00,
2013-03-01 10:15:00,40.5,28.5,29.81,North,360,0.0,0.0,62,0.05,,,0.07,Wunderground v.1.15,2013-03-01 15:15:00,
2013-03-01 10:25:00,40.7,27.9,29.80,North,360,0.0,0.0,60,0.04,,,0.08,Wunderground v.1.15,2013-03-01 15:25:00,
2013-03-01 10:30:00,41.0,28.6,29.80,North,360,0.0,0.0,61,0.04,,,0.08,Wunderground v.1.15,2013-03-01 15:30:00,
2013-03-01 10:40:00,40.8,28.0,29.81,North,360,0.0,0.0,60,0.04,,,0.09,Wunderground v.1.15,2013-03-01 15:40:00,
2013-03-01 10:45:00,40.5,28.1,29.81,North,360,0.0,0.0,61,0.04,,,0.09,Wunderground v.1.15,2013-03-01 15:45:00,
2013-03-01 10:55:00,39.7,28.1,29.82,North,360,0.0,0.0,63,0.05,,,0.10,Wunderground v.1.15,2013-03-01 15:55:00,
2013-03-01 11:05:00,39.1,28.7,29.82,North,360,0.0,0.0,66,0.05,,,0.11,Wunderground v.1.15,2013-03-01 16:05:00,
2013-03-01 11:10:00,38.7,28.7,29.83,North,360,0.0,0.0,67,0.05,,,0.11,Wunderground v.1.15,2013-03-01 16:10:00,
2013-03-01 11:20:00,38.4,28.8,29.83,North,360,0.0,0.0,68,0.05,,,0.12,Wunderground v.1.15,2013-03-01 16:20:00,
2013-03-01 11:25:00,38.6,27.8,29.83,North,360,0.0,0.0,65,0.04,,,0.12,Wunderground v.1.15,2013-03-01 16:25:00,
2013-03-01 11:35:00,39.0,28.6,29.84,North,360,0.0,0.0,66,0.04,,,0.13,Wunderground v.1.15,2013-03-01 16:35:00,
2013-03-01 11:45:00,39.3,27.7,29.83,North,360,0.0,0.0,63,0.04,,,0.14,Wunderground v.1.15,2013-03-01 16:45:00,
2013-03-01 11:55:00,39.0,27.8,29.83,North,360,0.0,0.0,64,0.06,,,0.15,Wunderground v.1.15,2013-03-01 16:55:00,
2013-03-01 12:00:00,39.0,27.8,29.83,North,360,0.0,0.0,64,0.06,,,0.15,Wunderground v.1.15,2013-03-01 17:00:00,
2013-03-01 12:10:00,38.9,27.4,29.83,North,360,0.0,0.0,63,0.05,,,0.16,Wunderground v.1.15,2013-03-01 17:10:00,
2013-03-01 12:15:00,39.2,27.7,29.83,North,360,0.0,0.0,63,0.05,,,0.16,Wunderground v.1.15,2013-03-01 17:15:00,
2013-03-01 12:25:00,38.8,26.9,29.83,North,360,0.0,0.0,62,0.06,,,0.17,Wunderground v.1.15,2013-03-01 17:25:00,
2013-03-01 12:35:00,38.9,27.4,29.83,North,360,0.0,0.0,63,0.05,,,0.18,Wunderground v.1.15,2013-03-01 17:35:00,
2013-03-01 12:45:00,39.3,27.0,29.82,North,360,0.0,0.0,61,0.05,,,0.19,Wunderground v.1.15,2013-03-01 17:45:00,
2013-03-01 12:55:00,39.2,26.9,29.82,North,360,0.0,0.0,61,0.05,,,0.20,Wunderground v.1.15,2013-03-01 17:55:00,
2013-03-01 13:00:00,39.2,26.9,29.82,North,360,0.0,0.0,61,0.05,,,0.20,Wunderground v.1.15,2013-03-01 18:00:00,
2013-03-01 13:10:00,39.1,27.2,29.82,North,360,0.0,0.0,62,0.06,,,0.21,Wunderground v.1.15,2013-03-01 18:10:00,
2013-03-01 13:15:00,39.3,27.0,29.82,North,360,0.0,0.0,61,0.06,,,0.21,Wunderground v.1.15,2013-03-01 18:15:00,
2013-03-01 13:25:00,39.7,27.7,29.81,North,360,0.0,0.0,62,0.05,,,0.22,Wunderground v.1.15,2013-03-01 18:25:00,
2013-03-01 13:30:00,39.6,27.2,29.81,North,360,0.0,0.0,61,0.06,,,0.23,Wunderground v.1.15,2013-03-01 18:30:00,
2013-03-01 13:40:00,39.4,27.8,29.81,North,360,0.0,0.0,63,0.05,,,0.24,Wunderground v.1.15,2013-03-01 18:40:00,
2013-03-01 13:45:00,39.4,27.1,29.81,North,360,0.0,0.0,61,0.05,,,0.24,Wunderground v.1.15,2013-03-01 18:45:00,
2013-03-01 13:50:00,39.5,26.8,29.81,North,360,0.0,0.0,60,0.05,,,0.24,Wunderground v.1.15,2013-03-01 18:50:00,
2013-03-01 14:00:00,39.3,27.0,29.81,North,360,0.0,0.0,61,0.05,,,0.25,Wunderground v.1.15,2013-03-01 19:00:00,
2013-03-01 14:05:00,39.3,27.0,29.81,North,360,0.0,0.0,61,0.05,,,0.26,Wunderground v.1.15,2013-03-01 19:05:00,
2013-03-01 14:15:00,39.2,26.5,29.81,North,360,0.0,0.0,60,0.06,,,0.27,Wunderground v.1.15,2013-03-01 19:15:00,
2013-03-01 14:25:00,39.3,27.0,29.81,North,360,0.0,0.0,61,0.05,,,0.27,Wunderground v.1.15,2013-03-01 19:25:00,
2013-03-01 14:35:00,39.4,26.7,29.81,North,360,0.0,0.0,60,0.05,,,0.28,Wunderground v.1.15,2013-03-01 19:35:00,
2013-03-01 14:40:00,39.5,26.8,29.81,North,360,0.0,0.0,60,0.06,,,0.29,Wunderground v.1.15,2013-03-01 19:40:00,
2013-03-01 14:50:00,40.0,26.4,29.81,North,360,0.0,0.0,58,0.05,,,0.30,Wunderground v.1.15,2013-03-01 19:50:00,
2013-03-01 15:00:00,40.3,26.3,29.82,North,360,0.0,0.0,57,0.06,,,0.31,Wunderground v.1.15,2013-03-01 20:00:00,
2013-03-01 15:10:00,40.7,26.6,29.82,North,360,0.0,0.0,57,0.06,,,0.32,Wunderground v.1.15,2013-03-01 20:10:00,
2013-03-01 15:15:00,40.6,27.0,29.81,North,360,0.0,0.0,58,0.06,,,0.32,Wunderground v.1.15,2013-03-01 20:15:00,
2013-03-01 15:25:00,40.3,26.7,29.82,North,360,0.0,0.0,58,0.07,,,0.33,Wunderground v.1.15,2013-03-01 20:25:00,
2013-03-01 15:30:00,39.8,25.8,29.82,North,360,0.0,0.0,57,0.06,,,0.34,Wunderground v.1.15,2013-03-01 20:30:00,
2013-03-01 15:40:00,38.9,26.6,29.83,North,360,0.0,0.0,61,0.07,,,0.35,Wunderground v.1.15,2013-03-01 20:40:00,
2013-03-01 15:50:00,38.6,27.1,29.83,North,360,0.0,0.0,63,0.06,,,0.36,Wunderground v.1.15,2013-03-01 20:50:00,
2013-03-01 16:00:00,38.3,27.2,29.82,North,360,0.0,0.0,64,0.07,,,0.37,Wunderground v.1.15,2013-03-01 21:00:00,
2013-03-01 16:05:00,38.2,27.1,29.82,North,360,0.0,0.0,64,0.07,,,0.37,Wunderground v.1.15,2013-03-01 21:05:00,
2013-03-01 16:10:00,37.9,27.2,29.83,North,360,0.0,0.0,65,0.05,,,0.38,Wunderground v.1.15,2013-03-01 21:10:00,
2013-03-01 16:20:00,37.5,26.8,29.83,North,360,0.0,0.0,65,0.06,,,0.39,Wunderground v.1.15,2013-03-01 21:20:00,
2013-03-01 16:30:00,37.3,27.3,29.83,North,360,0.0,0.0,67,0.05,,,0.40,Wunderground v.1.15,2013-03-01 21:30:00,
2013-03-01 16:40:00,37.0,27.4,29.83,North,360,0.0,0.0,68,0.06,,,0.41,Wunderground v.1.15,2013-03-01 21:40:00,
2013-03-01 16:50:00,36.8,26.9,29.83,North,360,0.0,0.0,67,0.05,,,0.41,Wunderground v.1.15,2013-03-01 21:50:00,
2013-03-01 16:55:00,36.7,26.4,29.83,North,360,0.0,0.0,66,0.05,,,0.42,Wunderground v.1.15,2013-03-01 21:55:00,
2013-03-01 17:05:00,36.6,26.7,29.83,North,360,0.0,0.0,67,0.05,,,0.43,Wunderground v.1.15,2013-03-01 22:05:00,
2013-03-01 17:15:00,36.4,26.8,29.84,North,360,0.0,0.0,68,0.05,,,0.44,Wunderground v.1.15,2013-03-01 22:15:00,
2013-03-01 17:20:00,36.4,26.8,29.84,North,360,0.0,0.0,68,0.05,,,0.44,Wunderground v.1.15,2013-03-01 22:20:00,
2013-03-01 17:30:00,36.2,27.4,29.84,North,360,0.0,0.0,70,0.05,,,0.45,Wunderground v.1.15,2013-03-01 22:30:00,
2013-03-01 17:40:00,36.1,27.3,29.84,North,360,0.0,0.0,70,0.04,,,0.46,Wunderground v.1.15,2013-03-01 22:40:00,
2013-03-01 17:50:00,36.0,27.5,29.84,North,360,0.0,0.0,71,0.04,,,0.46,Wunderground v.1.15,2013-03-01 22:50:00,
2013-03-01 17:55:00,35.9,27.4,29.84,North,360,0.0,0.0,71,0.05,,,0.47,Wunderground v.1.15,2013-03-01 22:55:00,
2013-03-01 18:00:00,35.8,27.7,29.85,North,360,0.0,0.0,72,0.05,,,0.47,Wunderground v.1.15,2013-03-01 23:00:00,
2013-03-01 18:10:00,35.6,27.5,29.85,North,360,0.0,0.0,72,0.04,,,0.48,Wunderground v.1.15,2013-03-01 23:10:00,
2013-03-01 18:15:00,35.5,27.7,29.85,North,360,0.0,0.0,73,0.04,,,0.48,Wunderground v.1.15,2013-03-01 23:15:00,
2013-03-01 18:25:00,35.4,27.6,29.85,North,360,0.0,0.0,73,0.04,,,0.49,Wunderground v.1.15,2013-03-01 23:25:00,
2013-03-01 18:30:00,35.3,27.5,29.85,North,360,0.0,0.0,73,0.04,,,0.49,Wunderground v.1.15,2013-03-01 23:30:00,
2013-03-01 18:40:00,35.3,27.5,29.85,North,360,0.0,0.0,73,0.00,,,0.50,Wunderground v.1.15,2013-03-01 23:40:00,
2013-03-01 18:45:00,35.3,27.2,29.85,North,360,0.0,0.0,72,0.00,,,0.50,Wunderground v.1.15,2013-03-01 23:45:00,
2013-03-01 18:55:00,35.1,27.0,29.85,North,360,0.0,0.0,72,0.00,,,0.50,Wunderground v.1.15,2013-03-01 23:55:00,
2013-03-01 19:05:00,35.0,27.2,29.86,North,360,0.0,0.0,73,0.00,,,0.51,Wunderground v.1.15,2013-03-02 00:05:00,
2013-03-01 19:10:00,35.0,27.2,29.86,North,360,0.0,0.0,73,0.00,,,0.51,Wunderground v.1.15,2013-03-02 00:10:00,
2013-03-01 19:20:00,34.9,27.5,29.86,North,360,0.0,0.0,74,0.00,,,0.52,Wunderground v.1.15,2013-03-02 00:20:00,
2013-03-01 19:25:00,34.8,27.4,29.86,North,360,0.0,0.0,74,0.00,,,0.52,Wunderground v.1.15,2013-03-02 00:25:00,
2013-03-01 19:35:00,34.7,26.9,29.86,North,360,0.0,0.0,73,0.00,,,0.52,Wunderground v.1.15,2013-03-02 00:35:00,
2013-03-01 19:45:00,34.6,26.2,29.87,North,360,0.0,0.0,71,0.00,,,0.53,Wunderground v.1.15,2013-03-02 00:45:00,
2013-03-01 19:50:00,34.5,26.1,29.87,North,360,0.0,0.0,71,0.00,,,0.53,Wunderground v.1.15,2013-03-02 00:50:00,
2013-03-01 20:00:00,34.4,26.0,29.86,North,360,0.0,0.0,71,0.00,,,0.53,Wunderground v.1.15,2013-03-02 01:00:00,
2013-03-01 20:10:00,34.4,26.0,29.86,North,360,0.0,0.0,71,0.00,,,0.54,Wunderground v.1.15,2013-03-02 01:10:00,
2013-03-01 20:15:00,34.4,26.3,29.86,North,360,0.0,0.0,72,0.00,,,0.54,Wunderground v.1.15,2013-03-02 01:15:00,
2013-03-01 20:25:00,34.4,26.0,29.86,North,360,0.0,0.0,71,0.00,,,0.54,Wunderground v.1.15,2013-03-02 01:25:00,
2013-03-01 20:35:00,34.1,25.3,29.86,North,360,0.0,0.0,70,0.00,,,0.55,Wunderground v.1.15,2013-03-02 01:35:00,
2013-03-01 20:45:00,33.9,25.1,29.86,North,360,0.0,0.0,70,0.00,,,0.55,Wunderground v.1.15,2013-03-02 01:45:00,
2013-03-01 20:50:00,33.7,25.0,29.86,North,360,0.0,0.0,70,0.00,,,0.55,Wunderground v.1.15,2013-03-02 01:50:00,
2013-03-01 21:00:00,33.1,25.1,29.86,North,360,0.0,0.0,72,0.00,,,0.55,Wunderground v.1.15,2013-03-02 02:00:00,
2013-03-01 21:10:00,33.0,25.0,29.87,North,360,0.0,0.0,72,0.00,,,0.56,Wunderground v.1.15,2013-03-02 02:10:00,
2013-03-01 21:15:00,32.8,24.8,29.86,North,360,0.0,0.0,72,0.00,,,0.56,Wunderground v.1.15,2013-03-02 02:15:00,
2013-03-01 21:25:00,32.6,24.9,29.86,North,360,0.0,0.0,73,0.00,,,0.56,Wunderground v.1.15,2013-03-02 02:25:00,
2013-03-01 21:30:00,32.6,25.6,29.86,North,360,0.0,0.0,75,0.00,,,0.56,Wunderground v.1.15,2013-03-02 02:30:00,
2013-03-01 21:40:00,32.6,25.2,29.86,North,360,0.0,0.0,74,0.00,,,0.56,Wunderground v.1.15,2013-03-02 02:40:00,
2013-03-01 21:45:00,32.6,25.2,29.86,North,360,0.0,0.0,74,0.00,,,0.56,Wunderground v.1.15,2013-03-02 02:45:00,
2013-03-01 21:55:00,32.6,25.2,29.86,North,360,0.0,0.0,74,0.00,,,0.56,Wunderground v.1.15,2013-03-02 02:55:00,
2013-03-01 22:05:00,32.6,25.2,29.86,North,360,0.0,0.0,74,0.00,,,0.56,Wunderground v.1.15,2013-03-02 03:05:00,
2013-03-01 22:15:00,32.7,25.3,29.86,North,360,0.0,0.0,74,0.00,,,0.56,Wunderground v.1.15,2013-03-02 03:15:00,
2013-03-01 22:25:00,32.7,25.3,29.86,North,360,0.0,0.0,74,0.00,,,0.56,Wunderground v.1.15,2013-03-02 03:25:00,
2013-03-01 22:35:00,32.6,25.6,29.86,North,360,0.0,0.0,75,0.00,,,0.57,Wunderground v.1.15,2013-03-02 03:35:00,
2013-03-01 22:45:00,32.6,25.6,29.85,North,360,0.0,0.0,75,0.00,,,0.57,Wunderground v.1.15,2013-03-02 03:45:00,
2013-03-01 22:55:00,32.6,25.6,29.85,North,360,0.0,0.0,75,0.00,,,0.57,Wunderground v.1.15,2013-03-02 03:55:00,
2013-03-01 23:05:00,32.5,25.8,29.85,North,360,0.0,0.0,76,0.00,,,0.57,Wunderground v.1.15,2013-03-02 04:05:00,
2013-03-01 23:15:00,32.3,25.3,29.85,North,360,0.0,0.0,75,0.00,,,0.57,Wunderground v.1.15,2013-03-02 04:15:00,
2013-03-01 23:25:00,32.2,25.5,29.85,North,360,0.0,0.0,76,0.00,,,0.57,Wunderground v.1.15,2013-03-02 04:25:00,
2013-03-01 23:35:00,32.2,25.5,29.85,North,360,0.0,0.0,76,0.00,,,0.57,Wunderground v.1.15,2013-03-02 04:35:00,
2013-03-01 23:40:00,32.2,25.5,29.85,North,360,0.0,0.0,76,0.00,,,0.57,Wunderground v.1.15,2013-03-02 04:40:00,
2013-03-01 23:50:00,32.3,25.3,29.84,North,360,0.0,0.0,75,0.00,,,0.57,Wunderground v.1.15,2013-03-02 04:50:00,